When you browse on this site, cookies collect data to enhance your experience and personalize the content and advertising you see.
Visit our Privacy Policy to learn more. By continuing to use the site, you agree to this use of cookies and data.
  • In Latvia
  • List of Countries
  • For 7 days
  • Water Temperature
  • Satellite Maps
  • Weather Map
  • Weather Widgets
  • user-avatar
    Login

    Hourly Weather Rechytsa

    Today, 20 July, Saturday

    Time Temperature Precipitation Wind Pressure Humidity
    00:00 +15°C° 0 mm 2 mps 750 mmHg 91%
    01:00 +15°C° 0 mm 2 mps 750 mmHg 92%
    02:00 +15°C° 0 mm 2 mps 750 mmHg 91%
    03:00 +14°C° 0 mm 2 mps 751 mmHg 92%
    04:00 +14°C° 0 mm 2 mps 751 mmHg 92%
    05:00 +14°C° 0 mm 2 mps 751 mmHg 92%
    06:00 +16°C° 0 mm 2 mps 751 mmHg 85%
    07:00 +18°C° 0 mm 2 mps 751 mmHg 78%
    08:00 +21°C° 0 mm 2 mps 751 mmHg 73%
    09:00 +22°C° 0 mm 3 mps 751 mmHg 66%
    10:00 +24°C° 0 mm 3 mps 752 mmHg 59%
    11:00 +26°C° 0 mm 3 mps 752 mmHg 53%
    12:00 +26°C° 0 mm 3 mps 752 mmHg 50%
    13:00 +27°C° 0 mm 3 mps 751 mmHg 47%
    14:00 +27°C° 0 mm 3 mps 752 mmHg 47%
    15:00 +27°C° 0.1 mm 2 mps 752 mmHg 52%
    16:00 +26°C° 0.1 mm 2 mps 752 mmHg 57%
    17:00 +26°C° 0.1 mm 2 mps 752 mmHg 62%
    18:00 +24°C° 0.1 mm 2 mps 751 mmHg 68%
    19:00 +21°C° 0.1 mm 2 mps 751 mmHg 73%
    20:00 +20°C° 0.1 mm 2 mps 751 mmHg 79%
    21:00 +20°C° 0 mm 1 mps 751 mmHg 81%
    22:00 +19°C° 0 mm 1 mps 752 mmHg 83%
    23:00 +18°C° 0 mm 1 mps 752 mmHg 85%

    Tomorrow, 21 July, Sunday

    Time Temperature Precipitation Wind Pressure Humidity
    00:00 +18°C° 0.1 mm 1 mps 752 mmHg 87%
    01:00 +18°C° 0.1 mm 1 mps 752 mmHg 88%
    02:00 +16°C° 0.1 mm 1 mps 752 mmHg 90%
    03:00 +16°C° 0 mm 1 mps 752 mmHg 90%
    04:00 +16°C° 0 mm 1 mps 752 mmHg 89%
    05:00 +15°C° 0 mm 0 mps 752 mmHg 89%
    06:00 +17°C° 0 mm 0 mps 752 mmHg 83%
    07:00 +19°C° 0 mm 0 mps 752 mmHg 77%
    08:00 +21°C° 0 mm 0 mps 752 mmHg 71%
    09:00 +23°C° 0 mm 0 mps 752 mmHg 65%
    10:00 +25°C° 0 mm 0 mps 752 mmHg 59%
    11:00 +26°C° 0 mm 0 mps 752 mmHg 53%
    12:00 +27°C° 0 mm 0 mps 752 mmHg 50%
    13:00 +27°C° 0 mm 0 mps 752 mmHg 48%
    14:00 +29°C° 0 mm 1 mps 751 mmHg 46%
    15:00 +29°C° 0 mm 1 mps 751 mmHg 48%
    16:00 +29°C° 0 mm 1 mps 751 mmHg 50%
    17:00 +28°C° 0 mm 1 mps 751 mmHg 52%
    18:00 +26°C° 0 mm 1 mps 751 mmHg 57%
    19:00 +25°C° 0 mm 1 mps 751 mmHg 63%
    20:00 +23°C° 0 mm 1 mps 751 mmHg 68%
    21:00 +22°C° 0 mm 1 mps 751 mmHg 71%
    22:00 +21°C° 0 mm 1 mps 751 mmHg 73%
    23:00 +19°C° 0 mm 2 mps 751 mmHg 75%

    Day after tomorrow, 22 July, Monday

    Time Temperature Precipitation Wind Pressure Humidity
    00:00 +19°C° 0.1 mm 2 mps 751 mmHg 77%
    01:00 +20°C° 0.1 mm 1 mps 751 mmHg 79%
    02:00 +19°C° 0.1 mm 1 mps 751 mmHg 81%
    03:00 +18°C° 0.1 mm 2 mps 750 mmHg 84%
    04:00 +18°C° 0.1 mm 2 mps 750 mmHg 87%
    05:00 +18°C° 0.1 mm 2 mps 750 mmHg 90%
    06:00 +19°C° 0.7 mm 2 mps 750 mmHg 89%
    07:00 +20°C° 0.7 mm 2 mps 750 mmHg 88%
    08:00 +21°C° 0.7 mm 3 mps 750 mmHg 87%
    09:00 +21°C° 1 mm 2 mps 749 mmHg 90%
    10:00 +20°C° 1 mm 2 mps 749 mmHg 92%
    11:00 +20°C° 1 mm 1 mps 749 mmHg 95%
    12:00 +21°C° 0.3 mm 2 mps 749 mmHg 89%
    13:00 +23°C° 0.3 mm 2 mps 749 mmHg 82%
    14:00 +25°C° 0.3 mm 2 mps 749 mmHg 76%
    15:00 +24°C° 1 mm 3 mps 749 mmHg 79%
    16:00 +22°C° 1 mm 4 mps 749 mmHg 82%
    17:00 +22°C° 1 mm 5 mps 749 mmHg 86%
    18:00 +21°C° 0.1 mm 5 mps 749 mmHg 86%
    19:00 +20°C° 0.1 mm 5 mps 748 mmHg 86%
    20:00 +20°C° 0.1 mm 4 mps 748 mmHg 87%
    21:00 +19°C° 0 mm 4 mps 748 mmHg 88%
    22:00 +18°C° 0 mm 4 mps 748 mmHg 89%
    23:00 +18°C° 0 mm 4 mps 749 mmHg 91%

    23 July, Tuesday

    Time Temperature Precipitation Wind Pressure Humidity
    00:00 +17°C° 0 mm 4 mps 748 mmHg 93%
    01:00 +17°C° 0 mm 4 mps 748 mmHg 95%
    02:00 +17°C° 0 mm 4 mps 748 mmHg 96%
    03:00 +17°C° 0 mm 4 mps 748 mmHg 95%
    04:00 +17°C° 0 mm 4 mps 748 mmHg 94%
    05:00 +16°C° 0 mm 5 mps 748 mmHg 93%
    06:00 +17°C° 0 mm 4 mps 748 mmHg 92%
    07:00 +18°C° 0 mm 4 mps 748 mmHg 90%
    08:00 +18°C° 0 mm 4 mps 748 mmHg 89%
    09:00 +19°C° 0.1 mm 4 mps 748 mmHg 86%
    10:00 +19°C° 0.1 mm 4 mps 748 mmHg 84%
    11:00 +20°C° 0.1 mm 4 mps 748 mmHg 82%
    12:00 +20°C° 0.1 mm 4 mps 748 mmHg 79%
    13:00 +21°C° 0.1 mm 4 mps 748 mmHg 76%
    14:00 +21°C° 0.1 mm 4 mps 748 mmHg 73%
    15:00 +22°C° 0.1 mm 4 mps 748 mmHg 72%
    16:00 +22°C° 0.1 mm 4 mps 748 mmHg 72%
    17:00 +22°C° 0.1 mm 4 mps 747 mmHg 72%
    18:00 +21°C° 0.1 mm 3 mps 747 mmHg 78%
    19:00 +19°C° 0.1 mm 3 mps 747 mmHg 85%
    20:00 +18°C° 0.1 mm 2 mps 747 mmHg 92%
    21:00 +17°C° 0 mm 2 mps 747 mmHg 94%
    22:00 +17°C° 0 mm 2 mps 747 mmHg 95%
    23:00 +16°C° 0 mm 2 mps 747 mmHg 96%

    24 July, Wednesday

    Time Temperature Precipitation Wind Pressure Humidity
    00:00 +16°C° 0 mm 2 mps 748 mmHg 97%
    01:00 +16°C° 0 mm 2 mps 748 mmHg 97%
    02:00 +15°C° 0 mm 2 mps 748 mmHg 98%
    03:00 +16°C° 0 mm 3 mps 748 mmHg 97%
    04:00 +16°C° 0 mm 3 mps 748 mmHg 97%
    05:00 +16°C° 0 mm 3 mps 748 mmHg 96%
    06:00 +17°C° 0 mm 4 mps 748 mmHg 94%
    07:00 +17°C° 0 mm 4 mps 748 mmHg 91%
    08:00 +18°C° 0 mm 4 mps 748 mmHg 88%
    09:00 +20°C° 0.1 mm 4 mps 749 mmHg 81%
    10:00 +22°C° 0.1 mm 5 mps 749 mmHg 74%
    11:00 +23°C° 0.1 mm 5 mps 749 mmHg 66%
    12:00 +23°C° 0.4 mm 5 mps 749 mmHg 68%
    13:00 +23°C° 0.4 mm 5 mps 749 mmHg 70%
    14:00 +23°C° 0.4 mm 6 mps 749 mmHg 72%
    15:00 +23°C° 0.2 mm 5 mps 749 mmHg 70%
    16:00 +23°C° 0.2 mm 5 mps 749 mmHg 68%
    17:00 +23°C° 0.2 mm 5 mps 749 mmHg 65%
    18:00 +22°C° 0 mm 4 mps 749 mmHg 71%
    19:00 +20°C° 0 mm 4 mps 749 mmHg 77%
    20:00 +19°C° 0 mm 3 mps 749 mmHg 83%
    21:00 +19°C° 0 mm 3 mps 750 mmHg 85%
    22:00 +18°C° 0 mm 3 mps 750 mmHg 86%
    23:00 +18°C° 0 mm 3 mps 750 mmHg 87%

    25 July, Thursday

    Time Temperature Precipitation Wind Pressure Humidity
    00:00 +17°C° 0 mm 3 mps 750 mmHg 89%
    01:00 +17°C° 0 mm 3 mps 750 mmHg 90%
    02:00 +16°C° 0 mm 3 mps 750 mmHg 92%
    03:00 +16°C° 0 mm 3 mps 750 mmHg 91%
    04:00 +16°C° 0 mm 3 mps 750 mmHg 90%
    05:00 +15°C° 0 mm 4 mps 750 mmHg 89%
    06:00 +18°C° 0 mm 4 mps 751 mmHg 83%
    07:00 +19°C° 0 mm 5 mps 751 mmHg 77%
    08:00 +21°C° 0 mm 5 mps 751 mmHg 71%
    09:00 +22°C° 0 mm 5 mps 751 mmHg 66%
    10:00 +23°C° 0 mm 6 mps 751 mmHg 62%
    11:00 +26°C° 0 mm 6 mps 751 mmHg 58%
    12:00 +26°C° 0 mm 6 mps 751 mmHg 57%
    13:00 +27°C° 0 mm 6 mps 750 mmHg 56%
    14:00 +27°C° 0 mm 6 mps 750 mmHg 55%
    15:00 +26°C° 0 mm 6 mps 750 mmHg 59%
    16:00 +26°C° 0 mm 6 mps 750 mmHg 62%
    17:00 +26°C° 0 mm 6 mps 750 mmHg 65%
    18:00 +23°C° 0 mm 5 mps 750 mmHg 71%
    19:00 +22°C° 0 mm 4 mps 750 mmHg 76%
    20:00 +21°C° 0 mm 3 mps 751 mmHg 81%
    21:00 +20°C° 0 mm 3 mps 751 mmHg 83%
    22:00 +19°C° 0 mm 3 mps 751 mmHg 86%
    23:00 +18°C° 0 mm 3 mps 751 mmHg 88%
    Show more